Terug naar catalogus

TELECOM 2C

ActiefCommunicatieGEO
NORAD 23730·PAYLOAD·🇫🇷 France

Gelanceerd Dec 6, 1995 vanaf Guiana Space Centre

Loading…

TLE

VersSource: Space-Track

Epoch: Sep 13, 2026, 22:36 UTC

1 23730U 95067A   26256.94234284 -.00000077  00000-0  00000-0 0  9994
2 23730  14.1912  15.4083 0013493 287.9817  72.8231  0.97937637111331

Volg TELECOM 2C in realtime met AllMySat

Download on the App Store